| time (UTC) | temp C | wind direction | speed KPH | gust KPH | rain 1hr cm | rain 24hr cm | rain mn cm | humidity % | barometer mb |
| 20260503224548 | 26 | 360 | 6.4 | 20.9 | 0.00 | 0.00 | 0.00 | 40 | 1010.7 |
| 20260503223051 | 25 | 16 | 8.0 | 20.9 | 0.00 | 0.00 | 0.00 | 41 | 1010.9 |
| 20260503221553 | 26 | 360 | 6.4 | 20.9 | 0.00 | 0.00 | 0.00 | 41 | 1010.9 |
| 20260503220050 | 26 | 13 | 8.0 | 19.3 | 0.00 | 0.00 | 0.00 | 37 | 1011.0 |
| 20260503214545 | 26 | 322 | 8.0 | 19.3 | 0.00 | 0.00 | 0.00 | 37 | 1011.2 |
| 20260503213049 | 26 | 20 | 6.4 | 16.1 | 0.00 | 0.00 | 0.00 | 37 | 1011.4 |
| 20260503211551 | 26 | 80 | 6.4 | 17.7 | 0.00 | 0.00 | 0.00 | 39 | 1011.5 |
| 20260503210052 | 26 | 10 | 3.2 | 14.5 | 0.00 | 0.00 | 0.00 | 41 | 1011.7 |
| 20260503204547 | 26 | 308 | 3.2 | 12.9 | 0.00 | 0.00 | 0.00 | 41 | 1011.9 |
| 20260503203050 | 26 | 350 | 3.2 | 16.1 | 0.00 | 0.00 | 0.00 | 41 | 1012.0 |
| 20260503201548 | 26 | 352 | 4.8 | 12.9 | 0.00 | 0.00 | 0.00 | 42 | 1012.2 |
| 20260503200051 | 25 | 265 | 4.8 | 17.7 | 0.00 | 0.00 | 0.00 | 41 | 1012.4 |
| 20260503194547 | 25 | 325 | 3.2 | 14.5 | 0.00 | 0.00 | 0.00 | 41 | 1012.7 |
| 20260503193052 | 25 | 294 | 6.4 | 16.1 | 0.00 | 0.00 | 0.00 | 42 | 1012.9 |
| 20260503191606 | 24 | 5 | 6.4 | 17.7 | 0.00 | 0.00 | 0.00 | 42 | 1013.0 |
| 20260503190053 | 24 | 26 | 6.4 | 14.5 | 0.00 | 0.00 | 0.00 | 44 | 1013.1 |
| 20260503184554 | 23 | 38 | 6.4 | 17.7 | 0.00 | 0.00 | 0.00 | 45 | 1013.3 |
| 20260503183109 | 23 | 280 | 3.2 | 14.5 | 0.00 | 0.00 | 0.00 | 46 | 1013.4 |
| 20260503181617 | 23 | 14 | 6.4 | 12.9 | 0.00 | 0.00 | 0.00 | 45 | 1013.5 |
| 20260503180054 | 23 | 13 | 3.2 | 12.9 | 0.00 | 0.00 | 0.00 | 46 | 1013.5 |
| 20260503174548 | 22 | 61 | 3.2 | 14.5 | 0.00 | 0.00 | 0.00 | 48 | 1013.6 |
| 20260503173056 | 22 | 51 | 6.4 | 14.5 | 0.00 | 0.00 | 0.00 | 50 | 1013.7 |
| 20260503171545 | 21 | 22 | 8.0 | 17.7 | 0.00 | 0.00 | 0.00 | 52 | 1013.7 |
| 20260503100104 | 12 | 5 | 1.6 | 3.2 | 0.00 | 0.00 | 0.00 | 70 | 1014.3 |
| 20260503081549 | 14 | 9 | 1.6 | 3.2 | 0.00 | 0.00 | 0.00 | 62 | 1014.5 |
| 20260503071556 | 15 | 0 | 0.0 | 0.0 | 0.00 | 0.00 | 0.00 | 61 | 1014.2 |
| 20260503070106 | 15 | 0 | 0.0 | 0.0 | 0.00 | 0.00 | 0.00 | 60 | 1014.2 |
| 20260503060112 | 16 | 11 | 1.6 | 4.8 | 0.00 | 0.00 | 0.00 | 58 | 1014.2 |
| 20260503054549 | 16 | 15 | 0.0 | 3.2 | 0.00 | 0.00 | 0.00 | 58 | 1014.2 |
| 20260503053046 | 16 | 24 | 1.6 | 4.8 | 0.00 | 0.00 | 0.00 | 58 | 1014.2 |
| 20260503051552 | 16 | 11 | 3.2 | 6.4 | 0.00 | 0.00 | 0.00 | 57 | 1014.2 |
| 20260503050052 | 16 | 11 | 1.6 | 4.8 | 0.00 | 0.00 | 0.00 | 58 | 1014.2 |
| 20260503044547 | 16 | 0 | 0.0 | 3.2 | 0.00 | 0.00 | 0.00 | 58 | 1014.1 |
| 20260503043047 | 17 | 350 | 1.6 | 4.8 | 0.00 | 0.00 | 0.00 | 57 | 1014.0 |
| 20260503041546 | 17 | 360 | 1.6 | 8.0 | 0.00 | 0.00 | 0.00 | 56 | 1013.8 |
| 20260503040049 | 17 | 0 | 0.0 | 4.8 | 0.00 | 0.00 | 0.00 | 56 | 1013.6 |
| 20260503034556 | 18 | 339 | 1.6 | 4.8 | 0.00 | 0.00 | 0.00 | 56 | 1013.4 |
| 20260503033055 | 18 | 347 | 1.6 | 6.4 | 0.00 | 0.00 | 0.00 | 56 | 1013.1 |
| 20260503031547 | 18 | 350 | 1.6 | 4.8 | 0.00 | 0.00 | 0.00 | 55 | 1013.0 |
| 20260503030056 | 19 | 329 | 3.2 | 12.9 | 0.00 | 0.00 | 0.00 | 54 | 1012.8 |
| 20260503024547 | 20 | 5 | 1.6 | 12.9 | 0.00 | 0.00 | 0.00 | 52 | 1012.7 |
| 20260503023045 | 20 | 341 | 6.4 | 14.5 | 0.00 | 0.00 | 0.00 | 51 | 1012.6 |
| 20260503021549 | 20 | 352 | 3.2 | 14.5 | 0.00 | 0.00 | 0.00 | 51 | 1012.7 |
| 20260503020045 | 21 | 38 | 4.8 | 17.7 | 0.00 | 0.00 | 0.00 | 52 | 1012.6 |
| 20260503014546 | 21 | 19 | 6.4 | 19.3 | 0.00 | 0.00 | 0.00 | 52 | 1012.7 |
| 20260503013054 | 21 | 332 | 8.0 | 16.1 | 0.00 | 0.00 | 0.00 | 52 | 1012.9 |
| 20260503011556 | 21 | 15 | 8.0 | 17.7 | 0.00 | 0.00 | 0.00 | 52 | 1012.8 |
| 20260503010114 | 22 | 16 | 6.4 | 17.7 | 0.00 | 0.00 | 0.00 | 53 | 1012.8 |
| 20260503004607 | 22 | 333 | 4.8 | 16.1 | 0.00 | 0.00 | 0.00 | 52 | 1013.0 |
| 20260503003045 | 22 | 334 | 8.0 | 16.1 | 0.00 | 0.00 | 0.00 | 52 | 1013.1 |
| 20260503001547 | 22 | 329 | 6.4 | 16.1 | 0.00 | 0.00 | 0.00 | 50 | 1013.1 |
| 20260503000050 | 22 | 348 | 6.4 | 20.9 | 0.00 | 0.00 | 0.00 | 48 | 1013.1 |
| 20260502234547 | 22 | 352 | 8.0 | 19.3 | 0.00 | 0.00 | 0.00 | 48 | 1013.3 |
| 20260502233045 | 22 | 298 | 9.7 | 20.9 | 0.00 | 0.00 | 0.00 | 50 | 1013.5 |
| 20260502231548 | 23 | 333 | 4.8 | 19.3 | 0.00 | 0.00 | 0.00 | 50 | 1013.8 |
| 20260502230051 | 23 | 340 | 9.7 | 25.7 | 0.00 | 0.00 | 0.00 | 49 | 1013.9 |